COSMOS 2251 DEB, 34761

Orbit data source: Space-Track

COSMOS 2251 DEB, 34761 is space debris in LEO originally from a launch on Wed, 16 Jun 1993 UTC launched from the Plesetsk Missile And Space Complex (PKMTR). The debris from Iridium 33, an American commercial communications satellite, has been tracked extensively since its accidental collision with the defunct Russian satellite Cosmos 2251 in 2009. This event, occurring at high speed in low Earth orbit (LEO), generated thousands of pieces of space debris, significantly increasing the risk of further collisions. The Iridium 33 debris cloud has impacted space traffic management and orbital debris mitigation strategies, making it a subject of ongoing study in space situational awareness.

Loading next visibility...
Identifier
34761, 1993-036AAF
Orbit
LEO
Country
Flag of CISCIS
Related business
Manufacturer
Unknown
Mission
Spacecraft
Bus & Motor
Unknown
Mass
Unknown
Launch date (UTC)
1993-06-16 (33 years ago)
Launch vehicle
Unknown
Launch site
Plesetsk Missile And Space Complex (PKMTR)
Object type
Payload
Rocket body
Debris
Shape & HBR
Unknown shape, 0.1 m
Radar Cross Section
Medium (>0.1 m² and <1 m²)

Expand to show TLE details & history
Last TLE update: 8 hours ago

TLE from 8 hours ago
0 COSMOS 2251 DEB
1 34761U 93036AAF 26263.50785180  .00000806  00000-0  26791-3 0  9997
2 34761  74.0279 203.0813 0037502 175.4802 184.6699 14.38940655917019
Epoch: 2026-09-20T12:11Z
TLE epoch observation values (Epoch: 2026-09-20T12:11:18.395Z)
Latitude
-0.00002°
Longitude
20.85362°
Altitude
791.308 km
Speed
7.444 km/s
True Right ascension
13h 32m 19s
True Declination
0° 00' 00"
Sunlit
Object was in daylight at epoch
Visualization orbit readout
Latitude
Unknown
Longitude
Unknown
Altitude
Unknown
Speed
Unknown
Apparent Right ascension
Unknown
Apparent Declination
Unknown
Sunlit
N/A
Visualization observer readout
Local Sidereal Time
12:57:43
Azimuth
Unknown
Elevation
Unknown
Doppler factor
Unknown
Orbital elements
Apogee altitude
786.39 km
Perigee altitude
732.854 km
Semi-major axis
7,137.759 km
Eccentricity
0.00375
Inclination
74.0279°
RAAN
203.0813°
Arg. of periapsis
175.4802°
True anomaly
184.63508°
Mean anomaly
184.6699°
Eccentric anomaly
184.65247°
Mean motion
3.59915 °/min
Orbital period
100.02 mins
BSTAR
0.00026791

Documentation

Showing up to 5 results
|